Regional Weather Roundup
Issued by NWS Little Rock, AR

Home | Current Version | Previous Version | Graphics & Text | Print | Product List | Glossary On
Versions: 1 2 3 4 5 6 7 8 9 10 11 12 13 14 15 16 17 18 19 20 21 22 23 24 25 26 27 28 29 30 31 32 33 34 35 36 37 38 39 40 41 42 43 44 45
000
ASUS44 KLZK 182200
RWRLZK
ARKANSAS STATE WEATHER ROUNDUP
NATIONAL WEATHER SERVICE LITTLE ROCK AR
ISSUED BY NATIONAL WEATHER SERVICE MEMPHIS TN
500 PM CDT MON SEP 18 2017

NOTE: "FAIR" INDICATES FEW OR NO CLOUDS BELOW 12,000 FEET WITH NO
SIGNIFICANT WEATHER AND/OR OBSTRUCTIONS TO VISIBILITY.

ARZ001-003-010-029-182300-
NORTHWEST ARKANSAS

CITY           SKY/WX    TMP DP  RH WIND       PRES   REMARKS
FORT SMITH     SUNNY     91  63  39 W5        29.91F HX  92
HARRISON       PTSUNNY   80  69  69 E7        29.97S
BENTONVILLE    MOSUNNY   81  68  64 S6        29.98F
SILOAM SPGS    MOSUNNY   84  67  56 SW7       29.96F
HIGHFILL       MOSUNNY   83  68  60 S8        29.96F
SPRINGDALE     MOSUNNY   82  68  61 CALM      29.98F
$$

ARZ004-005-016-182300-
NORTH CENTRAL ARKANSAS

CITY           SKY/WX    TMP DP  RH WIND       PRES   REMARKS
BATESVILLE     SUNNY    N/A N/A N/A VRB5      29.94F
FLIPPIN        TSTM      75  72  90 E5        29.96S
MTN HOME       TSTM      73  73 100 CALM      29.97R FOG
$$

ARZ040-041-182300-
WEST CENTRAL ARKANSAS

CITY           SKY/WX    TMP DP  RH WIND       PRES   REMARKS
MOUNT IDA      SUNNY     90  59  35 CALM      29.92F
$$

ARZ017-025-026-028-182300-
NORTHEAST ARKANSAS

CITY           SKY/WX    TMP DP  RH WIND       PRES   REMARKS
JONESBORO      CLOUDY    84  74  71 NE7       29.93F HX  91
NEWPORT        MOSUNNY   80  72  76 NE10      29.93F
BLYTHEVILLE    TSTM      75  69  81 S40G52    29.99R
$$

ARZ022-033-042-044-182300-
CENTRAL ARKANSAS

CITY           SKY/WX    TMP DP  RH WIND       PRES   REMARKS
LITTLE ROCK    MOSUNNY   85  71  63 SW10      29.93F HX  90
JACKSONVILLE   SUNNY     89  67  48 S8        29.92F HX  92
SEARCY         CLOUDY    87  74  64 SW5       29.93  HX  95
HOT SPRINGS    SUNNY     91  62  37 W7        29.92F HX  91
RUSSELLVILLE   MOSUNNY   91  67  44 NW9       29.90F HX  94
$$

ARZ036-182300-
EAST ARKANSAS

CITY           SKY/WX    TMP DP  RH WIND       PRES   REMARKS
WEST MEMPHIS   CLOUDY    80  70  71 CALM      29.93F
$$

ARZ050-070-073-182300-
SOUTHWEST ARKANSAS

CITY           SKY/WX    TMP DP  RH WIND       PRES   REMARKS
TEXARKANA      SUNNY     89  66  46 VRB6      29.92F HX  91
EL DORADO      SUNNY     90  68  48 CALM      29.93F HX  94
DEQUEEN        SUNNY     90  66  45 S7        29.89F HX  92
$$

ARZ056-057-069-182300-
SOUTHEAST ARKANSAS

CITY           SKY/WX    TMP DP  RH WIND       PRES   REMARKS
PINE BLUFF     SUNNY     88  69  53 SW9       29.92F HX  92
STUTTGART      MOSUNNY   89  70  53 SW3       29.92F HX  94
MONTICELLO     SUNNY     86  73  65 S5        29.93F HX  93
$$





USA.gov is the U.S. government's official web portal to all federal, state and local government web resources and services.